Simultaneous Nadir Overpasses (SNOs) Predictions

Prediction of SNOs between METOP-A and NOAA-19 Satellite Orbit:

Table of predicted SNOs for the next 14.0 days since TLE Epoch: 10/23/2021
Index Date (METOP-A) Time (METOP-A) Lat,Lon (METOP-A) SZA (METOP-A ) Date (NOAA-19) Time (NOAA-19) Lat,Lon (NOAA-19) SZA (NOAA-19 ) Distance(km) Time Diff (sec)
1 10/25/2021 10:44:56 -80.25,-163.39 87.55 10/25/2021 10:43:49 -80.26,-163.24 87.54 2.92 67
2 10/25/2021 11:35:36 80.26, 4.06 92.48 10/25/2021 11:34:52 80.26, 3.96 92.48 1.82 44
3 10/25/2021 12:26:17 -80.27, 171.43 87.51 10/25/2021 12:25:49 -80.27, 171.33 87.51 1.79 28
4 10/25/2021 13:16:57 80.28, -21.13 92.52 10/25/2021 13:16:51 80.28, -21.14 92.53 0.54 6
5 10/25/2021 14:07:37 -80.31, 146.55 87.44 10/25/2021 14:07:47 -80.31, 146.56 87.44 0.40 10
6 10/25/2021 14:58:17 80.32, -46.00 92.59 10/25/2021 14:58:49 80.33, -45.90 92.60 1.93 32
7 10/25/2021 15:48:58 -80.33, 121.37 87.40 10/25/2021 15:49:46 -80.33, 121.47 87.39 2.04 48
8 10/25/2021 16:39:38 80.34, -71.18 92.63 10/25/2021 16:40:49 80.33, -71.33 92.63 2.86 71
9 11/05/2021 13:39:35 -80.09, 151.09 84.12 11/05/2021 13:38:25 -80.11, 151.23 84.10 3.15 70
10 11/05/2021 14:30:14 80.13, -41.21 95.94 11/05/2021 14:29:24 80.13, -41.24 95.93 0.62 50
11 11/05/2021 15:20:55 -80.14, 126.19 84.05 11/05/2021 15:20:24 -80.13, 126.12 84.05 1.56 31
12 11/05/2021 16:11:35 80.15, -66.40 95.97 11/05/2021 16:11:23 80.15, -66.35 95.98 1.26 12
13 11/05/2021 17:02:15 -80.18, 101.30 83.98 11/05/2021 17:02:22 -80.18, 101.33 83.98 0.61 7
14 11/05/2021 17:52:55 80.19, -91.29 96.04 11/05/2021 17:53:21 80.20, -91.14 96.05 3.08 26
15 11/05/2021 18:43:36 -80.20, 76.11 83.94 11/05/2021 18:44:21 -80.21, 76.22 83.94 2.16 45



Historial Predications of SNOs between METOP-A and NOAA-19
